| time (UTC) | temp F | wind direction | speed knots | gust knots | rain 1hr in | rain 24hr in | rain mn in | humidity % | barometer mb |
| 20260504130433 | 70 | 38 | 8.7 | 13.0 | 0.00 | 1.09 | 0.00 | 83 | 1017.9 |
| 20260504110405 | 67 | 63 | 4.3 | 11.3 | 0.00 | 1.09 | 0.00 | 89 | 1016.8 |
| 20260504081832 | 67 | 130 | 1.7 | 6.1 | 0.00 | 1.09 | 0.00 | 93 | 1016.7 |
| 20260504081331 | 67 | 128 | 2.6 | 7.0 | 0.00 | 1.09 | 0.00 | 93 | 1016.8 |
| 20260504081141 | 67 | 119 | 3.5 | 7.0 | 0.00 | 1.09 | 0.00 | 93 | 1016.9 |
| 20260504080332 | 67 | 109 | 3.5 | 5.2 | 0.00 | 1.09 | 0.00 | 93 | 1017.0 |
| 20260504050409 | 67 | 130 | 6.1 | 7.8 | 0.02 | 1.08 | 1.08 | 93 | 1019.4 |
| 20260504045619 | 67 | 122 | 2.6 | 7.0 | 0.02 | 1.06 | 1.08 | 93 | 1019.6 |
| 20260504045119 | 67 | 135 | 3.5 | 7.0 | 0.03 | 1.06 | 1.08 | 93 | 1019.6 |
| 20260504044303 | 67 | 126 | 3.5 | 7.0 | 0.03 | 1.06 | 1.08 | 93 | 1019.8 |
| 20260504043803 | 67 | 90 | 3.5 | 7.0 | 0.04 | 1.06 | 1.07 | 93 | 1019.8 |
| 20260504043303 | 67 | 107 | 1.7 | 6.1 | 0.03 | 1.06 | 1.07 | 93 | 1019.9 |
| 20260504043249 | 67 | 101 | 3.5 | 7.0 | 0.04 | 1.06 | 1.07 | 93 | 1019.9 |
| 20260504042905 | 67 | 103 | 3.5 | 6.1 | 0.04 | 1.06 | 1.07 | 93 | 1019.9 |
| 20260504042224 | 68 | 115 | 7.0 | 11.3 | 0.06 | 1.06 | 1.06 | 92 | 1019.8 |
| 20260504041835 | 67 | 99 | 5.2 | 9.6 | 0.05 | 1.06 | 1.07 | 93 | 1020.0 |
| 20260504041436 | 67 | 82 | 7.0 | 9.6 | 0.05 | 1.06 | 1.06 | 92 | 1020.0 |
| 20260504040620 | 67 | 106 | 6.1 | 11.3 | 0.06 | 1.06 | 1.06 | 92 | 1019.9 |
| 20260504035748 | 67 | 71 | 7.8 | 10.4 | 0.06 | 0.99 | 1.06 | 93 | 1020.1 |
| 20260504035248 | 67 | 56 | 4.3 | 7.8 | 0.07 | 0.99 | 1.06 | 93 | 1020.0 |
| 20260504034935 | 68 | 107 | 2.6 | 7.0 | 0.08 | 0.99 | 1.05 | 94 | 1020.1 |
| 20260504034859 | 68 | 87 | 1.7 | 5.2 | 0.07 | 0.99 | 1.05 | 93 | 1020.1 |
| 20260504033744 | 67 | 108 | 3.5 | 7.0 | 0.08 | 0.99 | 1.04 | 94 | 1020.0 |
| 20260504033239 | 67 | 146 | 2.6 | 7.0 | 0.09 | 0.99 | 1.04 | 94 | 1019.9 |
| 20260504032731 | 67 | 138 | 3.5 | 7.0 | 0.09 | 0.99 | 1.03 | 94 | 1020.0 |
| 20260504032232 | 67 | 150 | 1.7 | 4.3 | 0.09 | 0.99 | 1.02 | 94 | 1020.0 |
| 20260504031731 | 67 | 148 | 1.7 | 6.1 | 0.09 | 0.99 | 1.02 | 95 | 1019.9 |
| 20260504031246 | 67 | 146 | 3.5 | 7.8 | 0.09 | 0.99 | 1.01 | 95 | 1019.9 |
| 20260504030732 | 67 | 131 | 4.3 | 7.8 | 0.10 | 0.99 | 1.01 | 95 | 1019.9 |
| 20260504030230 | 67 | 133 | 4.3 | 7.0 | 0.10 | 0.99 | 0.99 | 95 | 1019.8 |
| 20260504025732 | 67 | 106 | 2.6 | 3.5 | 0.11 | 0.89 | 0.99 | 95 | 1019.8 |
| 20260504025233 | 67 | 103 | 1.7 | 3.5 | 0.11 | 0.89 | 0.98 | 95 | 1019.9 |
| 20260504024733 | 67 | 103 | 1.7 | 2.6 | 0.11 | 0.89 | 0.98 | 95 | 1019.8 |
| 20260504024247 | 67 | 103 | 1.7 | 2.6 | 0.11 | 0.89 | 0.97 | 95 | 1019.8 |
| 20260504023732 | 67 | 103 | 1.7 | 2.6 | 0.11 | 0.89 | 0.96 | 95 | 1019.8 |
| 20260504023232 | 67 | 103 | 0.9 | 2.6 | 0.12 | 0.89 | 0.95 | 95 | 1019.8 |
| 20260504022732 | 67 | 103 | 0.9 | 3.5 | 0.12 | 0.89 | 0.94 | 95 | 1019.8 |
| 20260504022231 | 67 | 103 | 1.7 | 3.5 | 0.12 | 0.89 | 0.94 | 95 | 1019.7 |
| 20260504021731 | 67 | 103 | 0.9 | 6.1 | 0.12 | 0.89 | 0.93 | 95 | 1019.6 |
| 20260504021231 | 67 | 103 | 1.7 | 6.1 | 0.12 | 0.89 | 0.92 | 95 | 1019.6 |
| 20260504020735 | 67 | 102 | 1.7 | 3.5 | 0.11 | 0.89 | 0.91 | 95 | 1019.5 |
| 20260504020231 | 67 | 102 | 1.7 | 5.2 | 0.11 | 0.89 | 0.90 | 95 | 1019.4 |
| 20260504015732 | 67 | 102 | 2.6 | 6.1 | 0.10 | 0.78 | 0.88 | 95 | 1019.4 |
| 20260504015548 | 67 | 101 | 3.5 | 6.1 | 0.11 | 0.78 | 0.87 | 95 | 1019.2 |
| 20260504014731 | 67 | 94 | 1.7 | 7.8 | 0.11 | 0.78 | 0.87 | 95 | 1019.2 |
| 20260504014539 | 67 | 94 | 2.6 | 7.8 | 0.11 | 0.78 | 0.86 | 95 | 1019.2 |
| 20260504013732 | 68 | 96 | 4.3 | 7.0 | 0.12 | 0.78 | 0.85 | 95 | 1019.2 |
| 20260504013231 | 68 | 113 | 3.5 | 6.1 | 0.12 | 0.78 | 0.83 | 95 | 1019.1 |
| 20260504012731 | 68 | 121 | 3.5 | 6.1 | 0.13 | 0.78 | 0.83 | 95 | 1019.1 |
| 20260504012232 | 68 | 128 | 1.7 | 7.0 | 0.13 | 0.78 | 0.82 | 95 | 1019.1 |
| 20260504011845 | 68 | 103 | 1.7 | 3.5 | 0.13 | 0.65 | 0.78 | 95 | 1019.0 |
| 20260504011835 | 68 | 132 | 3.5 | 7.8 | 0.13 | 0.78 | 0.80 | 95 | 1019.0 |
| 20260504011809 | 68 | 130 | 3.5 | 7.0 | 0.13 | 0.78 | 0.81 | 95 | 1019.0 |
| 20260504011143 | 68 | 99 | 2.6 | 7.8 | 0.13 | 0.78 | 0.80 | 95 | 1019.0 |
| 20260504010326 | 68 | 134 | 2.6 | 4.3 | 0.13 | 0.78 | 0.79 | 95 | 1019.0 |
| 20260504005540 | 68 | 101 | 1.7 | 7.8 | 0.12 | 0.65 | 0.76 | 95 | 1018.9 |
| 20260504004717 | 67 | 100 | 4.3 | 7.8 | 0.12 | 0.66 | 0.76 | 95 | 1018.7 |
| 20260504004213 | 67 | 105 | 2.6 | 6.1 | 0.12 | 0.66 | 0.75 | 95 | 1018.7 |
| 20260504003710 | 67 | 110 | 3.5 | 6.1 | 0.13 | 0.66 | 0.72 | 95 | 1018.6 |
| 20260504003207 | 67 | 110 | 3.5 | 6.1 | 0.14 | 0.66 | 0.71 | 95 | 1018.5 |
| 20260504003029 | 67 | 86 | 2.6 | 7.0 | 0.15 | 0.66 | 0.70 | 95 | 1018.3 |
| 20260504002527 | 67 | 86 | 3.5 | 7.0 | 0.16 | 0.67 | 0.69 | 95 | 1018.3 |
| 20260504001704 | 67 | 59 | 3.5 | 7.0 | 0.18 | 0.67 | 0.68 | 94 | 1018.3 |
| 20260504001525 | 67 | 106 | 4.3 | 11.3 | 0.26 | 0.67 | 0.67 | 95 | 1018.3 |
| 20260504001025 | 67 | 121 | 7.0 | 11.3 | 0.27 | 0.67 | 0.66 | 95 | 1018.3 |
| 20260504000204 | 68 | 144 | 2.6 | 6.1 | 0.27 | 0.68 | 0.65 | 95 | 1018.3 |
| 20260503235703 | 68 | 127 | 3.5 | 6.1 | 0.27 | 0.42 | 0.65 | 95 | 1018.3 |
| 20260503235525 | 68 | 105 | 1.7 | 3.5 | 0.27 | 0.43 | 0.65 | 95 | 1018.2 |
| 20260503235109 | 67 | 103 | 0.9 | 2.6 | 0.27 | 0.43 | 0.62 | 94 | 1018.0 |
| 20260503234703 | 67 | 103 | 0.9 | 2.6 | 0.27 | 0.43 | 0.64 | 95 | 1018.0 |
| 20260503234527 | 67 | 103 | 0.9 | 2.6 | 0.27 | 0.43 | 0.62 | 94 | 1018.0 |
| 20260503233702 | 67 | 103 | 0.9 | 5.2 | 0.26 | 0.43 | 0.60 | 94 | 1017.8 |
| 20260503233524 | 67 | 103 | 1.7 | 5.2 | 0.23 | 0.44 | 0.57 | 94 | 1017.8 |
| 20260503232706 | 67 | 147 | 0.9 | 4.3 | 0.21 | 0.44 | 0.55 | 94 | 1017.8 |
| 20260503232204 | 68 | 148 | 2.6 | 7.0 | 0.20 | 0.44 | 0.53 | 94 | 1017.7 |
| 20260503232027 | 68 | 130 | 4.3 | 7.0 | 0.17 | 0.44 | 0.48 | 94 | 1017.7 |
| 20260503231203 | 68 | 123 | 2.6 | 4.3 | 0.09 | 0.44 | 0.40 | 94 | 1017.7 |
| 20260503230703 | 68 | 122 | 0.9 | 4.3 | 0.11 | 0.44 | 0.39 | 94 | 1017.6 |
| 20260503230205 | 68 | 123 | 2.6 | 4.3 | 0.11 | 0.44 | 0.39 | 94 | 1017.3 |
| 20260503225707 | 68 | 124 | 0.0 | 4.3 | 0.17 | 0.31 | 0.39 | 94 | 1017.3 |
| 20260503225203 | 68 | 125 | 2.6 | 5.2 | 0.27 | 0.31 | 0.38 | 94 | 1017.2 |
| 20260503224703 | 68 | 54 | 2.6 | 5.2 | 0.32 | 0.31 | 0.37 | 93 | 1017.2 |
| 20260503224203 | 69 | 126 | 2.6 | 4.3 | 0.36 | 0.31 | 0.35 | 94 | 1017.3 |
| 20260503223703 | 69 | 125 | 1.7 | 5.2 | 0.35 | 0.32 | 0.35 | 94 | 1017.2 |
| 20260503223653 | 69 | 102 | 2.6 | 3.5 | 0.34 | 0.32 | 0.34 | 93 | 1017.1 |
| 20260503223302 | 69 | 116 | 2.6 | 5.2 | 0.35 | 0.32 | 0.34 | 93 | 1017.2 |
| 20260503222205 | 69 | 90 | 1.7 | 3.5 | 0.33 | 0.32 | 0.33 | 93 | 1017.0 |
| 20260503221704 | 69 | 90 | 1.7 | 4.3 | 0.33 | 0.32 | 0.32 | 93 | 1016.9 |
| 20260503221202 | 69 | 71 | 2.6 | 4.3 | 0.31 | 0.32 | 0.31 | 92 | 1016.9 |
| 20260503221110 | 70 | 324 | 0.9 | 4.3 | 0.28 | 0.32 | 0.28 | 92 | 1017.0 |
| 20260503220203 | 70 | 324 | 3.5 | 4.3 | 0.28 | 0.32 | 0.28 | 92 | 1017.1 |
| 20260503215709 | 70 | 327 | 1.7 | 3.5 | 0.22 | 0.06 | 0.20 | 91 | 1017.3 |
| 20260503215519 | 70 | 327 | 2.6 | 3.5 | 0.11 | 0.06 | 0.09 | 90 | 1017.3 |
| 20260503214705 | 70 | 325 | 0.9 | 7.0 | 0.05 | 0.06 | 0.03 | 89 | 1017.2 |
| 20260503214527 | 71 | 325 | 2.6 | 7.0 | 0.00 | 0.06 | 0.00 | 88 | 1017.1 |
| 20260503214056 | 71 | 314 | 3.5 | 7.0 | 0.00 | 0.06 | 0.00 | 88 | 1017.0 |
| 20260503213641 | 71 | 75 | 1.7 | 7.8 | 0.00 | 0.06 | 0.00 | 87 | 1017.0 |
| 20260503213633 | 71 | 350 | 2.6 | 7.8 | 0.00 | 0.06 | 0.00 | 87 | 1017.0 |
| 20260503212145 | 71 | 79 | 2.6 | 10.4 | 0.00 | 0.06 | 0.00 | 87 | 1016.9 |
| 20260503211642 | 72 | 322 | 6.1 | 11.3 | 0.00 | 0.06 | 0.00 | 86 | 1017.0 |
| 20260503211140 | 72 | 325 | 6.1 | 11.3 | 0.00 | 0.06 | 0.00 | 86 | 1017.0 |
| 20260503210634 | 73 | 305 | 5.2 | 11.3 | 0.00 | 0.06 | 0.00 | 85 | 1016.8 |
| 20260503210132 | 74 | 317 | 5.2 | 11.3 | 0.00 | 0.06 | 0.00 | 85 | 1016.8 |
| 20260503205950 | 74 | 323 | 4.3 | 10.4 | 0.00 | 0.06 | 0.00 | 85 | 1016.8 |
| 20260503205425 | 74 | 85 | 4.3 | 9.6 | 0.00 | 0.06 | 0.00 | 81 | 1016.9 |
| 20260503205414 | 75 | 56 | 5.2 | 10.4 | 0.00 | 0.07 | 0.00 | 78 | 1017.2 |
| 20260503205322 | 74 | 98 | 5.2 | 9.6 | 0.00 | 0.06 | 0.00 | 82 | 1016.8 |
| 20260503205041 | 75 | 66 | 5.2 | 10.4 | 0.00 | 0.06 | 0.00 | 79 | 1017.2 |
| 20260503203131 | 75 | 55 | 5.2 | 12.2 | 0.00 | 0.07 | 0.00 | 78 | 1017.0 |
| 20260503202952 | 76 | 81 | 7.0 | 19.1 | 0.00 | 0.07 | 0.00 | 78 | 1017.0 |
| 20260503202131 | 76 | 59 | 9.6 | 19.1 | 0.00 | 0.07 | 0.00 | 76 | 1016.9 |
| 20260503201631 | 77 | 78 | 9.6 | 13.9 | 0.00 | 0.07 | 0.00 | 75 | 1016.8 |
| 20260503201131 | 77 | 67 | 6.1 | 14.8 | 0.00 | 0.08 | 0.00 | 73 | 1016.8 |
| 20260503200631 | 77 | 113 | 6.1 | 16.5 | 0.00 | 0.08 | 0.00 | 73 | 1016.8 |
| 20260503200131 | 78 | 38 | 7.8 | 16.5 | 0.00 | 0.08 | 0.00 | 71 | 1016.9 |
| 20260503195631 | 78 | 92 | 9.6 | 14.8 | 0.00 | 0.08 | 0.00 | 70 | 1016.9 |
| 20260503195131 | 78 | 107 | 7.8 | 15.6 | 0.00 | 0.08 | 0.00 | 70 | 1016.9 |
| 20260503194631 | 79 | 90 | 10.4 | 15.6 | 0.00 | 0.08 | 0.00 | 68 | 1017.0 |
| 20260503194454 | 79 | 62 | 7.0 | 12.2 | 0.00 | 0.08 | 0.00 | 69 | 1017.0 |
| 20260503193915 | 80 | 75 | 10.4 | 15.6 | 0.00 | 0.08 | 0.00 | 68 | 1017.1 |
| 20260503193815 | 79 | 105 | 5.2 | 15.6 | 0.00 | 0.08 | 0.00 | 68 | 1017.0 |
| 20260503192631 | 79 | 110 | 8.7 | 13.0 | 0.00 | 0.08 | 0.00 | 69 | 1017.1 |
| 20260503192331 | 78 | 99 | 3.5 | 9.6 | 0.00 | 0.08 | 0.00 | 71 | 1017.2 |
| 20260503192244 | 78 | 61 | 7.0 | 11.3 | 0.00 | 0.08 | 0.00 | 68 | 1017.2 |
| 20260503191130 | 77 | 80 | 5.2 | 9.6 | 0.00 | 0.08 | 0.00 | 72 | 1017.3 |
| 20260503190631 | 76 | 53 | 5.2 | 15.6 | 0.00 | 0.08 | 0.00 | 75 | 1017.6 |
| 20260503190131 | 76 | 77 | 7.8 | 15.6 | 0.00 | 0.08 | 0.00 | 75 | 1017.7 |
| 20260503185632 | 77 | 58 | 8.7 | 13.0 | 0.00 | 0.08 | 0.00 | 72 | 1017.8 |
| 20260503185131 | 78 | 92 | 7.0 | 11.3 | 0.00 | 0.08 | 0.00 | 71 | 1017.9 |
| 20260503184820 | 78 | 44 | 4.3 | 9.6 | 0.00 | 0.08 | 0.00 | 72 | 1017.9 |
| 20260503184736 | 78 | 94 | 6.1 | 10.4 | 0.00 | 0.08 | 0.00 | 72 | 1017.8 |
| 20260503183709 | 81 | 86 | 5.2 | 10.4 | 0.00 | 0.08 | 0.00 | 63 | 1018.3 |
| 20260503183645 | 78 | 63 | 6.1 | 11.3 | 0.00 | 0.08 | 0.00 | 70 | 1017.9 |
| 20260503183206 | 78 | 96 | 7.8 | 11.3 | 0.00 | 0.08 | 0.00 | 68 | 1017.9 |
| 20260503182759 | 79 | 79 | 7.0 | 12.2 | 0.00 | 0.08 | 0.00 | 67 | 1017.9 |
| 20260503182135 | 79 | 32 | 6.1 | 12.2 | 0.00 | 0.08 | 0.00 | 66 | 1018.1 |
| 20260503181730 | 80 | 62 | 5.2 | 10.4 | 0.00 | 0.08 | 0.00 | 65 | 1018.2 |
| 20260503180711 | 82 | 106 | 5.2 | 7.8 | 0.00 | 0.08 | 0.00 | 61 | 1018.7 |
| 20260503180704 | 82 | 87 | 4.3 | 11.3 | 0.00 | 0.08 | 0.00 | 62 | 1018.6 |
| 20260503180642 | 82 | 49 | 5.2 | 11.3 | 0.00 | 0.08 | 0.00 | 62 | 1018.5 |
| 20260503175109 | 82 | 82 | 1.7 | 7.8 | 0.00 | 0.08 | 0.00 | 62 | 1018.8 |
| 20260503174611 | 82 | 130 | 4.3 | 8.7 | 0.00 | 0.08 | 0.00 | 62 | 1018.9 |
| 20260503174106 | 81 | 297 | 2.6 | 8.7 | 0.00 | 0.08 | 0.00 | 63 | 1019.1 |
| 20260503173840 | 81 | 55 | 3.5 | 6.1 | 0.00 | 0.08 | 0.00 | 63 | 1019.1 |
| 20260503173740 | 80 | 340 | 2.6 | 8.7 | 0.00 | 0.08 | 0.00 | 64 | 1019.1 |
| 20260503172604 | 81 | 181 | 2.6 | 7.8 | 0.00 | 0.08 | 0.00 | 63 | 1019.4 |
| 20260503172443 | 82 | 83 | 2.6 | 6.1 | 0.00 | 0.08 | 0.00 | 62 | 1019.5 |
| 20260503172436 | 81 | 123 | 3.5 | 6.1 | 0.00 | 0.08 | 0.00 | 64 | 1019.4 |
| 20260503172107 | 82 | 105 | 1.7 | 7.8 | 0.00 | 0.08 | 0.00 | 61 | 1019.4 |
| 20260503170952 | 79 | 265 | 1.7 | 11.3 | 0.00 | 0.08 | 0.00 | 67 | 1019.5 |
| 20260503170132 | 78 | 23 | 4.3 | 11.3 | 0.00 | 0.08 | 0.00 | 67 | 1019.6 |
| 20260503150935 | 74 | 60 | 0.9 | 6.1 | 0.00 | 0.08 | 0.00 | 75 | 1020.5 |
| 20260503150105 | 73 | 115 | 2.6 | 5.2 | 0.00 | 0.08 | 0.00 | 74 | 1020.5 |
| 20260503140104 | 72 | 110 | 1.7 | 3.5 | 0.00 | 0.08 | 0.00 | 76 | 1020.3 |